| time (UTC) | temp F | wind direction | speed MPH | gust MPH | rain 1hr in | rain 24hr in | rain mn in | humidity % | barometer mb |
| 20260905024456 | 91 | 152 | 2.0 | 7.0 | 0.00 | 0.00 | 0.00 | 54 | 1013.7 |
| 20260905023953 | 91 | 158 | 3.0 | 7.0 | 0.00 | 0.00 | 0.00 | 54 | 1013.7 |
| 20260905023455 | 91 | 155 | 6.0 | 6.0 | 0.00 | 0.00 | 0.00 | 54 | 1013.6 |
| 20260905022955 | 92 | 155 | 3.0 | 8.0 | 0.00 | 0.00 | 0.00 | 53 | 1013.5 |
| 20260905022453 | 92 | 155 | 3.0 | 10.0 | 0.00 | 0.00 | 0.00 | 53 | 1013.5 |
| 20260905021952 | 92 | 173 | 7.0 | 11.0 | 0.00 | 0.00 | 0.00 | 53 | 1013.4 |
| 20260905021451 | 92 | 153 | 4.0 | 11.0 | 0.00 | 0.00 | 0.00 | 53 | 1013.3 |
| 20260905020951 | 92 | 157 | 6.0 | 13.0 | 0.00 | 0.00 | 0.00 | 52 | 1013.2 |
| 20260905020449 | 92 | 161 | 5.0 | 14.0 | 0.00 | 0.00 | 0.00 | 52 | 1013.1 |
| 20260905015947 | 92 | 189 | 5.0 | 14.0 | 0.00 | 0.00 | 0.00 | 52 | 1013.1 |
| 20260905015451 | 92 | 148 | 12.0 | 14.0 | 0.00 | 0.00 | 0.00 | 52 | 1012.9 |
| 20260905014950 | 93 | 142 | 5.0 | 12.0 | 0.00 | 0.00 | 0.00 | 53 | 1012.8 |
| 20260905014547 | 93 | 150 | 6.0 | 11.0 | 0.00 | 0.00 | 0.00 | 53 | 1012.6 |
| 20260905014046 | 93 | 136 | 9.0 | 11.0 | 0.00 | 0.00 | 0.00 | 52 | 1012.6 |
| 20260905013548 | 93 | 142 | 3.0 | 11.0 | 0.00 | 0.00 | 0.00 | 52 | 1012.5 |
| 20260905013143 | 93 | 114 | 4.0 | 15.0 | 0.00 | 0.00 | 0.00 | 52 | 1012.5 |
| 20260905012643 | 93 | 122 | 5.0 | 15.0 | 0.00 | 0.00 | 0.00 | 52 | 1012.5 |
| 20260905012045 | 93 | 150 | 10.0 | 14.0 | 0.00 | 0.00 | 0.00 | 52 | 1012.5 |
| 20260905011644 | 93 | 142 | 10.0 | 12.0 | 0.00 | 0.00 | 0.00 | 52 | 1012.3 |
| 20260905011141 | 93 | 138 | 7.0 | 14.0 | 0.00 | 0.00 | 0.00 | 52 | 1012.3 |
| 20260905010640 | 94 | 177 | 4.0 | 14.0 | 0.00 | 0.00 | 0.00 | 52 | 1012.3 |
| 20260905010139 | 94 | 139 | 11.0 | 13.0 | 0.00 | 0.00 | 0.00 | 52 | 1012.2 |
| 20260905005640 | 94 | 134 | 7.0 | 12.0 | 0.00 | 0.00 | 0.00 | 52 | 1012.2 |
| 20260905005139 | 94 | 178 | 5.0 | 14.0 | 0.00 | 0.00 | 0.00 | 51 | 1012.1 |
| 20260905004638 | 94 | 121 | 9.0 | 14.0 | 0.00 | 0.00 | 0.00 | 51 | 1012.0 |
| 20260905004136 | 95 | 122 | 9.0 | 15.0 | 0.00 | 0.00 | 0.00 | 51 | 1011.9 |
| 20260905003638 | 95 | 144 | 5.0 | 15.0 | 0.00 | 0.00 | 0.00 | 50 | 1011.8 |
| 20260905003135 | 95 | 134 | 7.0 | 15.0 | 0.00 | 0.00 | 0.00 | 50 | 1011.8 |
| 20260905002635 | 95 | 118 | 11.0 | 15.0 | 0.00 | 0.00 | 0.00 | 50 | 1011.6 |
| 20260905002133 | 96 | 148 | 9.0 | 14.0 | 0.00 | 0.00 | 0.00 | 49 | 1011.6 |
| 20260905001632 | 96 | 147 | 5.0 | 14.0 | 0.00 | 0.00 | 0.00 | 48 | 1011.6 |
| 20260905001131 | 96 | 115 | 4.0 | 12.0 | 0.00 | 0.00 | 0.00 | 47 | 1011.6 |
| 20260905000631 | 97 | 138 | 5.0 | 12.0 | 0.00 | 0.00 | 0.00 | 47 | 1011.5 |
| 20260905000130 | 97 | 136 | 10.0 | 11.0 | 0.00 | 0.00 | 0.00 | 47 | 1011.6 |
| 20260904235628 | 97 | 116 | 7.0 | 10.0 | 0.00 | 0.00 | 0.00 | 46 | 1011.6 |
| 20260904235130 | 97 | 123 | 3.0 | 9.0 | 0.00 | 0.00 | 0.00 | 46 | 1011.6 |
| 20260904234629 | 97 | 150 | 3.0 | 10.0 | 0.00 | 0.00 | 0.00 | 45 | 1011.5 |
| 20260904234128 | 97 | 164 | 5.0 | 11.0 | 0.00 | 0.00 | 0.00 | 46 | 1011.6 |
| 20260904233627 | 97 | 192 | 7.0 | 12.0 | 0.00 | 0.00 | 0.00 | 45 | 1011.5 |
| 20260904233126 | 97 | 155 | 3.0 | 14.0 | 0.00 | 0.00 | 0.00 | 45 | 1011.6 |
| 20260904232625 | 97 | 202 | 5.0 | 14.0 | 0.00 | 0.00 | 0.00 | 45 | 1011.5 |
| 20260904232126 | 97 | 181 | 3.0 | 10.0 | 0.00 | 0.00 | 0.00 | 45 | 1011.6 |
| 20260904231624 | 97 | 171 | 2.0 | 10.0 | 0.00 | 0.00 | 0.00 | 45 | 1011.6 |
| 20260904231124 | 97 | 195 | 6.0 | 10.0 | 0.00 | 0.00 | 0.00 | 45 | 1011.8 |
| 20260904230624 | 98 | 134 | 10.0 | 12.0 | 0.00 | 0.00 | 0.00 | 45 | 1011.6 |
| 20260904230124 | 97 | 155 | 6.0 | 12.0 | 0.00 | 0.00 | 0.00 | 46 | 1011.6 |
| 20260904225622 | 97 | 162 | 7.0 | 11.0 | 0.00 | 0.00 | 0.00 | 45 | 1011.7 |
| 20260904225123 | 98 | 161 | 6.0 | 13.0 | 0.00 | 0.00 | 0.00 | 45 | 1011.7 |
| 20260904224622 | 98 | 155 | 6.0 | 13.0 | 0.00 | 0.00 | 0.00 | 45 | 1011.8 |
| 20260904224121 | 98 | 198 | 6.0 | 11.0 | 0.00 | 0.00 | 0.00 | 46 | 1011.8 |
| 20260904223620 | 98 | 161 | 6.0 | 16.0 | 0.00 | 0.00 | 0.00 | 45 | 1011.8 |
| 20260904223121 | 97 | 95 | 3.0 | 16.0 | 0.00 | 0.00 | 0.00 | 46 | 1011.9 |
| 20260904222620 | 97 | 155 | 9.0 | 16.0 | 0.00 | 0.00 | 0.00 | 46 | 1011.9 |
| 20260904222120 | 97 | 149 | 6.0 | 10.0 | 0.00 | 0.00 | 0.00 | 46 | 1011.9 |
| 20260904221621 | 97 | 214 | 7.0 | 9.0 | 0.00 | 0.00 | 0.00 | 46 | 1011.9 |
| 20260904221119 | 97 | 203 | 4.0 | 13.0 | 0.00 | 0.00 | 0.00 | 46 | 1012.0 |
| 20260904220620 | 97 | 130 | 3.0 | 13.0 | 0.00 | 0.00 | 0.00 | 46 | 1012.0 |
| 20260904220119 | 98 | 140 | 9.0 | 16.0 | 0.00 | 0.00 | 0.00 | 46 | 1012.0 |
| 20260904215618 | 98 | 138 | 9.0 | 16.0 | 0.00 | 0.00 | 0.00 | 46 | 1011.9 |
| 20260904215119 | 97 | 196 | 4.0 | 15.0 | 0.00 | 0.00 | 0.00 | 47 | 1012.1 |
| 20260904214619 | 97 | 146 | 6.0 | 13.0 | 0.00 | 0.00 | 0.00 | 47 | 1012.0 |
| 20260904214118 | 97 | 134 | 8.0 | 16.0 | 0.00 | 0.00 | 0.00 | 46 | 1012.1 |
| 20260904213618 | 97 | 118 | 6.0 | 16.0 | 0.00 | 0.00 | 0.00 | 47 | 1012.1 |
| 20260904213118 | 97 | 175 | 6.0 | 15.0 | 0.00 | 0.00 | 0.00 | 47 | 1012.1 |
| 20260904212616 | 97 | 123 | 5.0 | 14.0 | 0.00 | 0.00 | 0.00 | 47 | 1012.2 |
| 20260904212119 | 97 | 209 | 8.0 | 14.0 | 0.00 | 0.00 | 0.00 | 47 | 1012.3 |
| 20260904211619 | 97 | 162 | 4.0 | 12.0 | 0.00 | 0.00 | 0.00 | 46 | 1012.5 |
| 20260904211118 | 97 | 163 | 2.0 | 12.0 | 0.00 | 0.00 | 0.00 | 47 | 1012.5 |
| 20260904210615 | 97 | 207 | 5.0 | 17.0 | 0.00 | 0.00 | 0.00 | 46 | 1012.4 |
| 20260904210116 | 97 | 259 | 2.0 | 17.0 | 0.00 | 0.00 | 0.00 | 47 | 1012.6 |
| 20260904205616 | 97 | 161 | 6.0 | 17.0 | 0.00 | 0.00 | 0.00 | 47 | 1012.7 |
| 20260904205115 | 97 | 193 | 7.0 | 17.0 | 0.00 | 0.00 | 0.00 | 48 | 1012.7 |
| 20260904204615 | 97 | 215 | 5.0 | 15.0 | 0.00 | 0.00 | 0.00 | 47 | 1012.8 |
| 20260904204115 | 97 | 208 | 6.0 | 14.0 | 0.00 | 0.00 | 0.00 | 50 | 1012.7 |
| 20260904203616 | 97 | 214 | 10.0 | 14.0 | 0.00 | 0.00 | 0.00 | 48 | 1013.0 |
| 20260904203116 | 96 | 197 | 9.0 | 15.0 | 0.00 | 0.00 | 0.00 | 50 | 1013.0 |
| 20260904202621 | 96 | 212 | 5.0 | 15.0 | 0.00 | 0.00 | 0.00 | 49 | 1013.0 |
| 20260904202117 | 96 | 182 | 7.0 | 13.0 | 0.00 | 0.00 | 0.00 | 50 | 1013.2 |
| 20260904201614 | 96 | 221 | 10.0 | 13.0 | 0.00 | 0.00 | 0.00 | 51 | 1013.2 |
| 20260904201114 | 96 | 202 | 6.0 | 12.0 | 0.00 | 0.00 | 0.00 | 51 | 1013.3 |
| 20260904200614 | 96 | 133 | 8.0 | 14.0 | 0.00 | 0.00 | 0.00 | 52 | 1013.4 |
| 20260904200114 | 95 | 149 | 10.0 | 16.0 | 0.00 | 0.00 | 0.00 | 53 | 1013.5 |
| 20260904195614 | 95 | 145 | 11.0 | 16.0 | 0.00 | 0.00 | 0.00 | 52 | 1013.6 |
| 20260904195114 | 96 | 207 | 8.0 | 15.0 | 0.00 | 0.00 | 0.00 | 53 | 1013.6 |
| 20260904194615 | 95 | 202 | 7.0 | 15.0 | 0.00 | 0.00 | 0.00 | 52 | 1013.7 |
| 20260904194114 | 95 | 163 | 7.0 | 14.0 | 0.00 | 0.00 | 0.00 | 53 | 1013.7 |
| 20260904193614 | 94 | 140 | 3.0 | 15.0 | 0.00 | 0.00 | 0.00 | 54 | 1013.8 |
| 20260904193113 | 94 | 181 | 3.0 | 16.0 | 0.00 | 0.00 | 0.00 | 53 | 1013.8 |
| 20260904192614 | 95 | 116 | 10.0 | 18.0 | 0.00 | 0.00 | 0.00 | 53 | 1013.8 |
| 20260904192111 | 95 | 117 | 9.0 | 18.0 | 0.00 | 0.00 | 0.00 | 53 | 1014.0 |
| 20260904191614 | 95 | 140 | 7.0 | 11.0 | 0.00 | 0.00 | 0.00 | 55 | 1013.9 |
| 20260904191110 | 95 | 228 | 6.0 | 12.0 | 0.00 | 0.00 | 0.00 | 53 | 1014.0 |
| 20260904190612 | 95 | 183 | 3.0 | 12.0 | 0.00 | 0.00 | 0.00 | 54 | 1014.1 |
| 20260904190113 | 94 | 238 | 8.0 | 11.0 | 0.00 | 0.00 | 0.00 | 55 | 1014.1 |
| 20260904185613 | 94 | 161 | 7.0 | 11.0 | 0.00 | 0.00 | 0.00 | 54 | 1014.2 |
| 20260904185112 | 94 | 119 | 2.0 | 14.0 | 0.00 | 0.00 | 0.00 | 54 | 1014.2 |
| 20260904184610 | 94 | 153 | 3.0 | 14.0 | 0.00 | 0.00 | 0.00 | 53 | 1014.3 |
| 20260904184111 | 93 | 109 | 9.0 | 16.0 | 0.00 | 0.00 | 0.00 | 52 | 1014.4 |
| 20260904183614 | 93 | 218 | 8.0 | 16.0 | 0.00 | 0.00 | 0.00 | 53 | 1014.5 |
| 20260904183114 | 93 | 132 | 7.0 | 11.0 | 0.00 | 0.00 | 0.00 | 53 | 1014.5 |
| 20260904182611 | 93 | 133 | 5.0 | 12.0 | 0.00 | 0.00 | 0.00 | 54 | 1014.6 |
| 20260904182113 | 93 | 130 | 5.0 | 12.0 | 0.00 | 0.00 | 0.00 | 54 | 1014.6 |
| 20260904181613 | 93 | 117 | 10.0 | 10.0 | 0.00 | 0.00 | 0.00 | 54 | 1014.7 |
| 20260904181113 | 92 | 207 | 1.0 | 14.0 | 0.00 | 0.00 | 0.00 | 56 | 1014.7 |
| 20260904180611 | 93 | 155 | 3.0 | 14.0 | 0.00 | 0.00 | 0.00 | 55 | 1014.9 |
| 20260904180113 | 93 | 213 | 3.0 | 11.0 | 0.00 | 0.00 | 0.00 | 56 | 1014.8 |
| 20260904175612 | 92 | 203 | 5.0 | 10.0 | 0.00 | 0.00 | 0.00 | 58 | 1014.9 |
| 20260904175112 | 92 | 233 | 7.0 | 10.0 | 0.00 | 0.00 | 0.00 | 59 | 1015.1 |
| 20260904174613 | 91 | 173 | 6.0 | 9.0 | 0.00 | 0.00 | 0.00 | 59 | 1015.1 |
| 20260904174111 | 91 | 160 | 4.0 | 8.0 | 0.00 | 0.00 | 0.00 | 59 | 1015.1 |
| 20260904173614 | 91 | 208 | 6.0 | 9.0 | 0.00 | 0.00 | 0.00 | 60 | 1015.3 |
| 20260904173112 | 91 | 177 | 4.0 | 9.0 | 0.00 | 0.00 | 0.00 | 60 | 1015.3 |
| 20260904172611 | 90 | 173 | 5.0 | 9.0 | 0.00 | 0.00 | 0.00 | 61 | 1015.3 |
| 20260904172123 | 90 | 158 | 7.0 | 9.0 | 0.00 | 0.00 | 0.00 | 60 | 1015.5 |
| 20260904171618 | 90 | 152 | 3.0 | 9.0 | 0.00 | 0.00 | 0.00 | 61 | 1015.6 |
| 20260904171118 | 90 | 236 | 5.0 | 7.0 | 0.00 | 0.00 | 0.00 | 61 | 1015.6 |
| 20260904170617 | 90 | 167 | 4.0 | 13.0 | 0.00 | 0.00 | 0.00 | 59 | 1015.7 |
| 20260904170117 | 90 | 247 | 1.0 | 13.0 | 0.00 | 0.00 | 0.00 | 61 | 1015.7 |
| 20260904165617 | 90 | 236 | 9.0 | 13.0 | 0.00 | 0.00 | 0.00 | 61 | 1015.8 |
| 20260904165118 | 89 | 142 | 5.0 | 10.0 | 0.00 | 0.00 | 0.00 | 61 | 1015.7 |
| 20260904164617 | 88 | 160 | 5.0 | 12.0 | 0.00 | 0.00 | 0.00 | 62 | 1015.8 |
| 20260904164117 | 88 | 232 | 4.0 | 12.0 | 0.00 | 0.00 | 0.00 | 61 | 1015.8 |
| 20260904163615 | 88 | 197 | 5.0 | 12.0 | 0.00 | 0.00 | 0.00 | 63 | 1015.9 |
| 20260904163118 | 87 | 171 | 4.0 | 12.0 | 0.00 | 0.00 | 0.00 | 64 | 1015.9 |
| 20260904162616 | 88 | 263 | 7.0 | 11.0 | 0.00 | 0.00 | 0.00 | 64 | 1016.0 |
| 20260904162115 | 88 | 249 | 4.0 | 14.0 | 0.00 | 0.00 | 0.00 | 65 | 1015.9 |
| 20260904161614 | 87 | 201 | 9.0 | 14.0 | 0.00 | 0.00 | 0.00 | 66 | 1016.0 |
| 20260904161114 | 87 | 214 | 1.0 | 14.0 | 0.00 | 0.00 | 0.00 | 65 | 1015.9 |
| 20260904160614 | 87 | 261 | 10.0 | 14.0 | 0.00 | 0.00 | 0.00 | 66 | 1015.9 |
| 20260904160114 | 86 | 209 | 7.0 | 18.0 | 0.00 | 0.00 | 0.00 | 67 | 1016.0 |
| 20260904155615 | 86 | 191 | 10.0 | 18.0 | 0.00 | 0.00 | 0.00 | 68 | 1015.8 |
| 20260904155113 | 86 | 238 | 6.0 | 16.0 | 0.00 | 0.00 | 0.00 | 70 | 1015.8 |
| 20260904154613 | 85 | 195 | 3.0 | 16.0 | 0.00 | 0.00 | 0.00 | 71 | 1015.8 |
| 20260904154113 | 85 | 225 | 7.0 | 16.0 | 0.00 | 0.00 | 0.00 | 72 | 1015.7 |
| 20260904153612 | 85 | 227 | 16.0 | 14.0 | 0.00 | 0.00 | 0.00 | 73 | 1015.6 |
| 20260904153112 | 85 | 252 | 3.0 | 17.0 | 0.00 | 0.00 | 0.00 | 73 | 1015.6 |
| 20260904152611 | 85 | 218 | 12.0 | 17.0 | 0.00 | 0.00 | 0.00 | 74 | 1015.7 |
| 20260904152112 | 85 | 252 | 8.0 | 15.0 | 0.00 | 0.00 | 0.00 | 76 | 1015.7 |
| 20260904151613 | 84 | 229 | 2.0 | 15.0 | 0.00 | 0.00 | 0.00 | 79 | 1015.7 |
| 20260904151113 | 84 | 220 | 14.0 | 12.0 | 0.00 | 0.00 | 0.00 | 78 | 1015.7 |
| 20260904150613 | 84 | 155 | 7.0 | 13.0 | 0.00 | 0.00 | 0.00 | 79 | 1015.7 |
| 20260904150114 | 84 | 234 | 6.0 | 13.0 | 0.00 | 0.00 | 0.00 | 80 | 1015.7 |
| 20260904145612 | 83 | 230 | 11.0 | 11.0 | 0.00 | 0.00 | 0.00 | 79 | 1015.6 |
| 20260904145111 | 83 | 151 | 5.0 | 11.0 | 0.00 | 0.00 | 0.00 | 81 | 1015.6 |
| 20260904144611 | 83 | 139 | 7.0 | 11.0 | 0.00 | 0.00 | 0.00 | 83 | 1015.6 |
| 20260904144111 | 82 | 207 | 7.0 | 12.0 | 0.00 | 0.00 | 0.00 | 83 | 1015.6 |
| 20260904143614 | 81 | 155 | 6.0 | 12.0 | 0.00 | 0.00 | 0.00 | 83 | 1015.6 |
| 20260904143111 | 81 | 141 | 3.0 | 12.0 | 0.00 | 0.00 | 0.00 | 84 | 1015.6 |
| 20260904142612 | 81 | 177 | 4.0 | 12.0 | 0.00 | 0.00 | 0.00 | 84 | 1015.6 |
| 20260904142110 | 81 | 152 | 3.0 | 11.0 | 0.00 | 0.00 | 0.00 | 84 | 1015.6 |
| 20260904141613 | 81 | 185 | 2.0 | 11.0 | 0.00 | 0.00 | 0.00 | 85 | 1015.5 |
| 20260904141111 | 81 | 140 | 8.0 | 10.0 | 0.00 | 0.00 | 0.00 | 85 | 1015.6 |
| 20260904140612 | 80 | 183 | 7.0 | 10.0 | 0.00 | 0.00 | 0.00 | 86 | 1015.6 |
| 20260904140111 | 80 | 219 | 3.0 | 8.0 | 0.00 | 0.00 | 0.00 | 86 | 1015.6 |
| 20260904135610 | 80 | 153 | 5.0 | 9.0 | 0.00 | 0.00 | 0.00 | 86 | 1015.6 |
| 20260904135112 | 80 | 220 | 7.0 | 9.0 | 0.00 | 0.00 | 0.00 | 86 | 1015.5 |
| 20260904134615 | 80 | 155 | 4.0 | 7.0 | 0.00 | 0.00 | 0.00 | 87 | 1015.6 |
| 20260904134126 | 80 | 207 | 3.0 | 9.0 | 0.00 | 0.00 | 0.00 | 87 | 1015.4 |
| 20260904133626 | 79 | 190 | 4.0 | 9.0 | 0.00 | 0.00 | 0.00 | 87 | 1015.4 |
| 20260904133127 | 79 | 190 | 3.0 | 9.0 | 0.00 | 0.00 | 0.00 | 87 | 1015.3 |
| 20260904132628 | 79 | 180 | 3.0 | 9.0 | 0.00 | 0.00 | 0.00 | 87 | 1015.3 |
| 20260904132127 | 79 | 165 | 4.0 | 9.0 | 0.00 | 0.00 | 0.00 | 87 | 1015.3 |
| 20260904131625 | 79 | 168 | 5.0 | 7.0 | 0.00 | 0.00 | 0.00 | 87 | 1015.2 |
| 20260904131124 | 79 | 204 | 3.0 | 9.0 | 0.00 | 0.00 | 0.00 | 87 | 1015.1 |
| 20260904130625 | 79 | 192 | 5.0 | 9.0 | 0.00 | 0.00 | 0.00 | 87 | 1015.1 |
| 20260904130124 | 79 | 149 | 9.0 | 8.0 | 0.00 | 0.00 | 0.00 | 87 | 1015.1 |
| 20260904125624 | 79 | 165 | 5.0 | 10.0 | 0.00 | 0.00 | 0.00 | 87 | 1015.1 |
| 20260904125122 | 79 | 159 | 4.0 | 10.0 | 0.00 | 0.00 | 0.00 | 87 | 1015.0 |
| 20260904124622 | 79 | 148 | 4.0 | 10.0 | 0.00 | 0.00 | 0.00 | 87 | 1014.9 |
| 20260904124122 | 79 | 167 | 1.0 | 8.0 | 0.00 | 0.00 | 0.00 | 87 | 1014.9 |
| 20260904123622 | 79 | 167 | 3.0 | 9.0 | 0.00 | 0.00 | 0.00 | 86 | 1014.8 |
| 20260904123123 | 79 | 132 | 4.0 | 10.0 | 0.00 | 0.00 | 0.00 | 86 | 1014.7 |
| 20260904122622 | 79 | 173 | 6.0 | 10.0 | 0.00 | 0.00 | 0.00 | 86 | 1014.8 |
| 20260904122120 | 79 | 146 | 5.0 | 8.0 | 0.00 | 0.00 | 0.00 | 86 | 1014.7 |
| 20260904121619 | 79 | 149 | 4.0 | 8.0 | 0.00 | 0.00 | 0.00 | 86 | 1014.7 |
| 20260904121122 | 79 | 167 | 1.0 | 7.0 | 0.00 | 0.00 | 0.00 | 86 | 1014.6 |
| 20260904120618 | 79 | 186 | 4.0 | 8.0 | 0.00 | 0.00 | 0.00 | 86 | 1014.6 |
| 20260904120119 | 79 | 167 | 5.0 | 8.0 | 0.00 | 0.00 | 0.00 | 86 | 1014.5 |
| 20260904115618 | 79 | 152 | 8.0 | 7.0 | 0.00 | 0.00 | 0.00 | 86 | 1014.4 |
| 20260904115118 | 79 | 152 | 5.0 | 7.0 | 0.00 | 0.00 | 0.00 | 86 | 1014.5 |
| 20260904114618 | 79 | 147 | 3.0 | 7.0 | 0.00 | 0.00 | 0.00 | 86 | 1014.4 |
| 20260904114117 | 79 | 160 | 1.0 | 6.0 | 0.00 | 0.00 | 0.00 | 86 | 1014.4 |
| 20260904113616 | 79 | 171 | 2.0 | 6.0 | 0.00 | 0.00 | 0.00 | 86 | 1014.4 |
| 20260904113116 | 79 | 173 | 3.0 | 9.0 | 0.00 | 0.00 | 0.00 | 86 | 1014.3 |
| 20260904112616 | 79 | 185 | 2.0 | 9.0 | 0.00 | 0.00 | 0.00 | 86 | 1014.2 |
| 20260904112116 | 79 | 140 | 3.0 | 9.0 | 0.00 | 0.00 | 0.00 | 86 | 1014.2 |
| 20260904111614 | 79 | 173 | 2.0 | 6.0 | 0.00 | 0.00 | 0.00 | 86 | 1014.1 |
| 20260904111115 | 79 | 188 | 2.0 | 6.0 | 0.00 | 0.00 | 0.00 | 86 | 1014.2 |
| 20260904110615 | 79 | 190 | 3.0 | 8.0 | 0.00 | 0.00 | 0.00 | 86 | 1014.1 |
| 20260904110115 | 79 | 194 | 2.0 | 8.0 | 0.00 | 0.00 | 0.00 | 86 | 1014.1 |
| 20260904105614 | 79 | 177 | 4.0 | 8.0 | 0.00 | 0.00 | 0.00 | 86 | 1014.1 |
| 20260904105114 | 79 | 192 | 3.0 | 8.0 | 0.00 | 0.00 | 0.00 | 86 | 1014.1 |
| 20260904104614 | 79 | 199 | 4.0 | 8.0 | 0.00 | 0.00 | 0.00 | 86 | 1014.2 |
| 20260904104113 | 79 | 178 | 3.0 | 8.0 | 0.00 | 0.00 | 0.00 | 86 | 1014.2 |
| 20260904103613 | 79 | 194 | 4.0 | 6.0 | 0.00 | 0.00 | 0.00 | 86 | 1014.1 |
| 20260904103112 | 79 | 187 | 2.0 | 9.0 | 0.00 | 0.00 | 0.00 | 86 | 1014.1 |
| 20260904102612 | 79 | 180 | 4.0 | 9.0 | 0.00 | 0.00 | 0.00 | 86 | 1014.1 |
| 20260904102112 | 79 | 173 | 5.0 | 9.0 | 0.00 | 0.00 | 0.00 | 86 | 1014.0 |
| 20260904101610 | 79 | 182 | 2.0 | 9.0 | 0.00 | 0.00 | 0.00 | 86 | 1014.0 |
| 20260904101113 | 79 | 132 | 7.0 | 9.0 | 0.00 | 0.00 | 0.00 | 86 | 1014.0 |
| 20260904100612 | 79 | 163 | 4.0 | 9.0 | 0.00 | 0.00 | 0.00 | 86 | 1014.0 |
| 20260904100113 | 79 | 182 | 3.0 | 8.0 | 0.00 | 0.00 | 0.00 | 86 | 1013.9 |
| 20260904095611 | 79 | 172 | 5.0 | 8.0 | 0.00 | 0.00 | 0.00 | 86 | 1013.8 |
| 20260904095120 | 79 | 183 | 5.0 | 7.0 | 0.00 | 0.00 | 0.00 | 86 | 1013.9 |
| 20260904094613 | 79 | 210 | 3.0 | 9.0 | 0.00 | 0.00 | 0.00 | 85 | 1014.0 |
| 20260904094111 | 79 | 192 | 5.0 | 9.0 | 0.00 | 0.00 | 0.00 | 85 | 1013.9 |
| 20260904093612 | 79 | 197 | 7.0 | 9.0 | 0.00 | 0.00 | 0.00 | 85 | 1013.9 |
| 20260904093111 | 79 | 144 | 6.0 | 9.0 | 0.00 | 0.00 | 0.00 | 85 | 1014.0 |
| 20260904092613 | 79 | 150 | 4.0 | 9.0 | 0.00 | 0.00 | 0.00 | 85 | 1013.9 |
| 20260904092110 | 79 | 140 | 5.0 | 9.0 | 0.00 | 0.00 | 0.00 | 85 | 1013.9 |
| 20260904091610 | 79 | 138 | 5.0 | 9.0 | 0.00 | 0.00 | 0.00 | 85 | 1013.9 |
| 20260904091110 | 79 | 194 | 5.0 | 10.0 | 0.00 | 0.00 | 0.00 | 85 | 1013.9 |
| 20260904090611 | 79 | 180 | 4.0 | 10.0 | 0.00 | 0.00 | 0.00 | 85 | 1014.0 |
| 20260904090112 | 79 | 199 | 5.0 | 10.0 | 0.00 | 0.00 | 0.00 | 85 | 1013.9 |
| 20260904085613 | 79 | 199 | 8.0 | 10.0 | 0.00 | 0.00 | 0.00 | 85 | 1014.0 |
| 20260904085113 | 79 | 154 | 3.0 | 8.0 | 0.00 | 0.00 | 0.00 | 85 | 1014.0 |
| 20260904084612 | 79 | 161 | 2.0 | 11.0 | 0.00 | 0.00 | 0.00 | 85 | 1013.8 |
| 20260904084113 | 79 | 172 | 5.0 | 11.0 | 0.00 | 0.00 | 0.00 | 85 | 1013.9 |
| 20260904083614 | 79 | 216 | 4.0 | 9.0 | 0.00 | 0.00 | 0.00 | 85 | 1013.9 |
| 20260904083129 | 79 | 157 | 6.0 | 8.0 | 0.00 | 0.00 | 0.00 | 85 | 1013.9 |
| 20260904082628 | 79 | 199 | 4.0 | 8.0 | 0.00 | 0.00 | 0.00 | 85 | 1013.7 |
| 20260904082127 | 79 | 224 | 6.0 | 8.0 | 0.00 | 0.00 | 0.00 | 85 | 1013.9 |
| 20260904081626 | 79 | 173 | 3.0 | 8.0 | 0.00 | 0.00 | 0.00 | 85 | 1013.7 |
| 20260904081126 | 79 | 192 | 4.0 | 10.0 | 0.00 | 0.00 | 0.00 | 85 | 1013.7 |
| 20260904080625 | 79 | 214 | 4.0 | 12.0 | 0.00 | 0.00 | 0.00 | 84 | 1013.6 |
| 20260904080127 | 80 | 169 | 4.0 | 12.0 | 0.00 | 0.00 | 0.00 | 84 | 1013.6 |
| 20260904075625 | 80 | 178 | 6.0 | 12.0 | 0.00 | 0.00 | 0.00 | 83 | 1013.8 |
| 20260904075124 | 80 | 150 | 5.0 | 18.0 | 0.00 | 0.00 | 0.00 | 83 | 1013.8 |
| 20260904074624 | 80 | 178 | 6.0 | 18.0 | 0.00 | 0.00 | 0.00 | 83 | 1013.8 |
| 20260904074124 | 80 | 181 | 5.0 | 12.0 | 0.00 | 0.00 | 0.00 | 83 | 1013.9 |
| 20260904073623 | 80 | 181 | 3.0 | 12.0 | 0.00 | 0.00 | 0.00 | 83 | 1013.9 |
| 20260904073124 | 80 | 209 | 4.0 | 12.0 | 0.00 | 0.00 | 0.00 | 82 | 1013.9 |
| 20260904072624 | 80 | 177 | 5.0 | 10.0 | 0.00 | 0.00 | 0.00 | 82 | 1013.9 |
| 20260904072123 | 80 | 175 | 2.0 | 10.0 | 0.00 | 0.00 | 0.00 | 82 | 1014.0 |
| 20260904071622 | 80 | 178 | 4.0 | 11.0 | 0.00 | 0.00 | 0.00 | 82 | 1014.1 |
| 20260904071123 | 80 | 196 | 7.0 | 11.0 | 0.00 | 0.00 | 0.00 | 82 | 1014.0 |
| 20260904070623 | 80 | 187 | 4.0 | 11.0 | 0.00 | 0.00 | 0.00 | 82 | 1013.9 |
| 20260904070124 | 80 | 130 | 4.0 | 9.0 | 0.00 | 0.00 | 0.00 | 82 | 1014.1 |
| 20260904065622 | 80 | 208 | 6.0 | 8.0 | 0.00 | 0.00 | 0.00 | 81 | 1014.1 |
| 20260904065122 | 80 | 150 | 5.0 | 11.0 | 0.00 | 0.00 | 0.00 | 81 | 1014.0 |
| 20260904064621 | 80 | 157 | 3.0 | 14.0 | 0.00 | 0.00 | 0.00 | 81 | 1014.1 |
| 20260904064121 | 80 | 131 | 7.0 | 15.0 | 0.00 | 0.00 | 0.00 | 81 | 1014.0 |
| 20260904063623 | 80 | 191 | 5.0 | 18.0 | 0.00 | 0.00 | 0.00 | 81 | 1014.1 |
| 20260904063159 | 80 | 162 | 8.0 | 18.0 | 0.00 | 0.00 | 0.00 | 81 | 1014.1 |
| 20260904062622 | 80 | 190 | 7.0 | 18.0 | 0.00 | 0.00 | 0.00 | 81 | 1014.1 |
| 20260904062119 | 80 | 178 | 6.0 | 14.0 | 0.00 | 0.00 | 0.00 | 81 | 1014.1 |
| 20260904061619 | 80 | 180 | 5.0 | 15.0 | 0.00 | 0.00 | 0.00 | 81 | 1014.2 |
| 20260904061121 | 80 | 196 | 4.0 | 15.0 | 0.00 | 0.00 | 0.00 | 81 | 1014.3 |
| 20260904060619 | 80 | 197 | 5.0 | 10.0 | 0.00 | 0.00 | 0.00 | 81 | 1014.3 |
| 20260904060118 | 80 | 170 | 2.0 | 12.0 | 0.00 | 0.00 | 0.00 | 81 | 1014.3 |
| 20260904055617 | 80 | 175 | 3.0 | 12.0 | 0.00 | 0.00 | 0.00 | 81 | 1014.2 |
| 20260904055118 | 80 | 176 | 5.0 | 11.0 | 0.00 | 0.00 | 0.00 | 80 | 1014.1 |
| 20260904054617 | 80 | 215 | 7.0 | 11.0 | 0.00 | 0.00 | 0.00 | 80 | 1014.3 |
| 20260904054119 | 80 | 221 | 7.0 | 11.0 | 0.00 | 0.00 | 0.00 | 80 | 1014.2 |
| 20260904053617 | 79 | 150 | 6.0 | 9.0 | 0.00 | 0.00 | 0.00 | 80 | 1014.2 |
| 20260904053116 | 79 | 180 | 3.0 | 7.0 | 0.00 | 0.00 | 0.00 | 80 | 1014.1 |
| 20260904052615 | 79 | 156 | 6.0 | 8.0 | 0.00 | 0.00 | 0.00 | 80 | 1014.1 |
| 20260904052115 | 79 | 181 | 4.0 | 9.0 | 0.00 | 0.00 | 0.00 | 79 | 1014.1 |
| 20260904051615 | 80 | 166 | 5.0 | 9.0 | 0.00 | 0.00 | 0.00 | 78 | 1014.1 |
| 20260904051115 | 80 | 235 | 5.0 | 14.0 | 0.00 | 0.00 | 0.00 | 77 | 1014.0 |
| 20260904050614 | 81 | 114 | 4.0 | 14.0 | 0.00 | 0.00 | 0.00 | 75 | 1014.0 |
| 20260904050114 | 82 | 154 | 7.0 | 13.0 | 0.00 | 0.00 | 0.00 | 72 | 1014.1 |
| 20260904045612 | 82 | 182 | 5.0 | 9.0 | 0.00 | 0.00 | 0.00 | 71 | 1014.0 |
| 20260904045114 | 82 | 171 | 5.0 | 9.0 | 0.00 | 0.00 | 0.00 | 71 | 1014.1 |
| 20260904044614 | 82 | 205 | 4.0 | 13.0 | 0.00 | 0.00 | 0.00 | 71 | 1014.2 |
| 20260904044113 | 82 | 148 | 8.0 | 13.0 | 0.00 | 0.00 | 0.00 | 71 | 1014.1 |
| 20260904043612 | 82 | 164 | 5.0 | 12.0 | 0.00 | 0.00 | 0.00 | 71 | 1014.1 |
| 20260904043112 | 82 | 157 | 3.0 | 13.0 | 0.00 | 0.00 | 0.00 | 71 | 1014.0 |
| 20260904042612 | 82 | 144 | 4.0 | 13.0 | 0.00 | 0.00 | 0.00 | 71 | 1014.1 |
| 20260904042111 | 82 | 159 | 6.0 | 13.0 | 0.00 | 0.00 | 0.00 | 71 | 1014.1 |
| 20260904041614 | 82 | 146 | 8.0 | 12.0 | 0.00 | 0.00 | 0.00 | 72 | 1014.1 |
| 20260904041114 | 82 | 157 | 6.0 | 11.0 | 0.00 | 0.00 | 0.00 | 72 | 1014.1 |
| 20260904040611 | 82 | 146 | 8.0 | 12.0 | 0.00 | 0.00 | 0.00 | 72 | 1014.0 |
| 20260904040110 | 82 | 132 | 5.0 | 12.0 | 0.00 | 0.00 | 0.00 | 72 | 1014.1 |
| 20260904035614 | 82 | 177 | 6.0 | 12.0 | 0.00 | 0.00 | 0.00 | 73 | 1014.1 |
| 20260904035113 | 83 | 163 | 6.0 | 10.0 | 0.00 | 0.00 | 0.00 | 73 | 1014.1 |
| 20260904034613 | 83 | 148 | 9.0 | 10.0 | 0.00 | 0.00 | 0.00 | 73 | 1014.1 |
| 20260904034111 | 83 | 157 | 6.0 | 10.0 | 0.00 | 0.00 | 0.00 | 73 | 1014.0 |
| 20260904033611 | 83 | 147 | 8.0 | 10.0 | 0.00 | 0.00 | 0.00 | 73 | 1014.1 |
| 20260904033110 | 83 | 155 | 4.0 | 12.0 | 0.00 | 0.00 | 0.00 | 72 | 1014.1 |
| 20260904032610 | 83 | 153 | 3.0 | 12.0 | 0.00 | 0.00 | 0.00 | 73 | 1014.1 |
| 20260904032113 | 83 | 134 | 7.0 | 11.0 | 0.00 | 0.00 | 0.00 | 72 | 1014.1 |
| 20260904031612 | 83 | 137 | 7.0 | 13.0 | 0.00 | 0.00 | 0.00 | 72 | 1013.9 |
| 20260904031112 | 83 | 173 | 7.0 | 13.0 | 0.00 | 0.00 | 0.00 | 72 | 1014.0 |
| 20260904030610 | 83 | 146 | 9.0 | 13.0 | 0.00 | 0.00 | 0.00 | 72 | 1014.1 |
| 20260904030111 | 83 | 149 | 9.0 | 11.0 | 0.00 | 0.00 | 0.00 | 72 | 1014.1 |
| 20260904025614 | 84 | 157 | 5.0 | 12.0 | 0.00 | 0.00 | 0.00 | 71 | 1014.0 |
| 20260904025113 | 84 | 147 | 9.0 | 12.0 | 0.00 | 0.00 | 0.00 | 71 | 1013.8 |
| 20260904024613 | 84 | 142 | 8.0 | 15.0 | 0.00 | 0.00 | 0.00 | 71 | 1013.7 |